Regional Weather Roundup
Issued by NWS

Home | Current Version | Previous Version | Text Only | Print | Product List | Glossary On
Versions: 1 2 3 4 5 6 7 8 9 10 11 12 13 14 15 16 17 18 19 20 21 22 23 24 25 26 27 28
000
ASUS45 KBOI 241810
RWRID
WEATHER ROUNDUP FOR IDAHO
NATIONAL WEATHER SERVICE BOISE ID
1200 PM MDT FRI OCT 24 2014

NOTE: "FAIR" INDICATES FEW OR NO CLOUDS BELOW 12000 FEET
WITH NO SIGNIFICANT WEATHER AND/OR OBSTRUCTIONS TO VISIBILITY

IDZ012-014-241900-
SOUTHWEST IDAHO


CITY           SKY/WX    TMP DP  RH WIND       PRES   REMARKS
BOISE          CLOUDY    55  49  80 CALM      30.09F
CALDWELL       CLOUDY    55  45  67 NW5       30.12S
MOUNTAIN HOME  PTSUNNY   58  51  76 E5        30.10F
$$

IDZ016-017-241900-
SOUTHCENTRAL IDAHO


CITY           SKY/WX    TMP DP  RH WIND       PRES   REMARKS
BURLEY         SUNNY     64  38  38 E3        30.11F
JEROME         SUNNY     64  39  39 NE10      30.12F
TWIN FALLS     SUNNY     64  41  42 NE8       30.11F
$$

IDZ019>023-241900-
SOUTHEAST IDAHO


CITY           SKY/WX    TMP DP  RH WIND       PRES   REMARKS
IDAHO FALLS    PTSUNNY   61  39  44 W7        30.16S
POCATELLO      SUNNY     64  36  35 VRB3      30.15F
REXBURG        PTSUNNY   59  37  44 VRB7      30.16F
$$

IDZ006-010-011-018-031-032-241900-
CENTRAL IDAHO MOUNTAINS


CITY           SKY/WX    TMP DP  RH WIND       PRES   REMARKS
MCCALL         LGT RAIN  42  40  92 NE3       30.13S
HAILEY         PTSUNNY   52  43  71 NW6       30.19S
STANLEY          N/A     45  40  82 N5        30.17F
SALMON         CLOUDY    48  45  87 N3        30.13R
CHALLIS        CLOUDY    47  43  86 CALM      30.12F
$$

IDZ002-004-006-007-026-241900-
NORTHERN IDAHO


CITY           SKY/WX    TMP DP  RH WIND       PRES   REMARKS
LEWISTON       CLOUDY    53  49  86 NE5       30.09F
LOWELL           N/A     50  49  96 CALM      30.15F
COEUR D`ALENE  CLOUDY    50  41  71 S6        30.10S
MULLAN PASS    CLOUDY    37  33  85 VRB3      30.10S
$$



USA.gov is the U.S. government's official web portal to all federal, state and local government web resources and services.